User: anonymous
Location: Mount Tamalpais State Park
(37.9108°N, 122.6128°W)
Time: 09:46:56
(UTC-07:00)
Language:

Cosmos 1814 Rocket - Orbit

View from above orbital plane
View from above orbital plane
View from above satellite
View from above satellite

Ground track
Ground track

The orbit data is extracted from the following two-line orbital elements,

1 17304U 87006B   14210.48544804  .00000017  00000-0  14342-4 0  1821
2 17304 074.0578 227.0966 0030843 328.1162 140.3703 14.37329308441895
Epoch (UTC): 29 July 2014 11:39:02
Eccentricity: 0.0030843
inclination: 74.0578°
perigee height: 745 km
apogee height: 789 km
right ascension of ascending node: 227.0966°
argument of perigee: 328.1162°
revolutions per day: 14.37329308
mean anomaly at epoch: 140.3703°
orbit number at epoch: 44189

The dashed part of the orbit path shows where the satellite is in the earth's shadow,  

DLR